SCP
0 0 0 0 0 0 0 -0 -0 -0 -0 0 0 0 0 0 0 0 -0 0 0 0 -0 0 -0 -0 0 -0 0 0 -0 0 -0 0 0 0 0 0 0 0 0 0 0 0
0 0 0 0 0 0 0 0 0 0 0 0 -0 0 -0 0 0 0 0 -0 0 0 -0 -0 -0 -0 -0 0 -0 0 0 0 -0 0 0 0 0 0 0 0 -0 0 0 0
0 0 0 0 0 0 0 0 0 -0 -0 0 -0 0 -0 -0 -0 0 0 0 0 0 -0 -0 0 0 0 0 0 0 0 0 0 0 0 0 0 0 0 0 0 0 -0 0
0 0 0 0 0 0 0 0 0 -0 0 -0 0 0 -0 -0 0 -0 0 -0 -0 0 0 -0 0 0 -0 -0 0 -0 -0 0 0 0 0 0 0 0 0 0 -0 0 0 0
0 0 0 0 0 0 0 0 -0 -0 0 -0 0 0 -0 -0 -0 0 -0 0 0 0 -0 0 0 0 0 0 0 -0 -0 0 0 -0 -0 -0 0 0 0 0 0 0 0 0
0 0 0 0 0 0 0 0 0 0 0 0 0 0 0 -0 -0 0 0 0 0 -0 -0 0 0 0 0 0 0 0 0 0 -0 -0 0 0 0 0 0 0 0 -0 -0 -0
0 0 0 0 0 0 0 0 0 0 0 0 -0 0 -0 -0 -0 -0 -0 -0 -0 -0 0 0 0 0 0 0 0 0 0 0 0 0 0 -0 0 0 0 0 0 0 0 -0
0 0 0 0 0 0 0 0 0 0 0 0 0 0 0 -0 -0 -0 -0 0 -0 0 0 0 0 0 0 -0 0 0 0 0 0 0 -0 -0 0 0 -0 -0 0 0 0 0
0 0 0 0 0 0 0 0 0 0 0 0 0 0 0 0 -0 -0 -0 -0 0 -0 0 0 0 0 0 0 0 0 0 0 0 0 0 0 0 0 0 0 0 0 0 0
0 0 0 0 0 0 0 0 0 0 -0 -0 0 0 0 0 -0 -0 -0 -0 -0 0 0 0 0 0 0 0 0 0 0 0 0 0 0 0 0 0 0 0 0 0 0 0
0 0 0 0 0 0 0 0 0 0 0 0 0 0 0 0 -0 -0 -0 -0 -0 0 1 1 0 0 1 0 0 0 0 0 0 0 0 0 0 0 0 0 0 0 0 0
0 0 0 0 0 0 0 0 0 0 0 0 0 0 0 0 0 0 0 -0 -0 0 -0 0 0 1 0 0 1 0 0 0 0 0 0 0 0 0 0 0 0 0 0 0
0 0 0 0 0 0 0 0 0 0 0 0 0 0 0 0 0 0 -0 0 0 0 -0 0 0 1 2 2 1 1 1 2 1 1 0 0 0 0 0 0 0 0 0 0
0 0 0 0 0 0 0 0 0 0 0 0 0 0 -0 0 0 1 1 1 0 0 0 0 0 2 1 1 1 1 1 1 1 2 2 1 0 0 0 0 0 0 0 0
0 0 0 0 0 -0 0 0 0 0 0 0 0 0 0 1 0 0 1 1 0 1 0 0 0 0 0 0 1 1 1 0 0 1 1 1 1 1 1 1 0 0 0 0
0 0 0 -0 0 0 0 0 0 0 0 0 0 0 0 1 1 0 0 0 1 1 0 0 0 0 0 0 0 0 1 0 0 0 0 1 1 1 1 1 1 1 1 0
0 0 0 0 -0 0 0 0 0 0 0 0 0 0 1 1 0 0 0 0 0 0 0 1 1 1 1 0 0 0 0 0 0 0 0 0 1 1 1 1 1 1 1 1
0 0 0 0 0 0 0 0 0 0 0 0 0 1 0 0 0 0 0 0 0 0 0 0 0 0 0 0 0 0 0 0 0 0 0 0 0 0 0 0 0 1 1 1
0 0 0 0 0 0 0 0 0 0 1 0 1 1 0 0 0 0 0 0 0 0 0 0 0 0 0 0 0 0 0 0 0 0 0 0 0 0 0 0 0 0 0 0
0 0 0 0 0 0 0 0 0 0 0 -0 1 1 1 0 0 0 0 0 0 0 0 0 0 0 0 0 0 0 0 0 0 0 0 0 0 0 0 0 0 0 0 0
0 0 0 0 0 0 0 0 0 0 0 0 1 1 1 1 1 0 0 0 0 0 0 0 0 0 0 0 0 0 0 0 0 0 0 0 0 0 0 0 0 0 0 0
0 0 0 0 0 0 0 0 0 0 0 0 1 1 0 0 0 0 0 0 0 0 0 0 0 0 0 0 0 0 0 0 0 0 0 0 0 0 0 0 0 0 0 0
0 0 0 0 0 0 0 0 0 0 0 0 0 0 0 0 0 0 0 0 0 0 0 0 0 0 0 0 0 0 0 0 0 0 0 0 0 0 0 0 0 0 0 0
0 0 0 0 0 0 0 0 0 0 0 0 0 0 0 0 0 0 0 0 0 0 0 0 0 0 0 0 0 0 0 0 0 0 0 0 0 0 0 0 0 0 0 0
0 0 0 0 0 0 0 0 0 0 0 0 0 0 0 0 0 0 0 0 0 0 0 0 0 0 0 0 0 0 0 0 0 0 0 0 0 0 0 0 0 0 0 0
0 0 0 0 0 0 0 0 0 0 0 0 0 0 0 0 0 0 0 0 0 0 0 0 0 0 0 0 0 0 0 0 0 0 0 0 0 0 0 0 0 0 0 0
Wind_Speed_500mb
35 24 34 40 43 10 17 27 38 30 28 29 26 20 31 32 18 31 49 51 49 45 42 38 36 33 31 28 27 23 30 30 29 23 26 25 26 24 24 21 16 18 12 10
22 32 34 37 25 20 25 7 40 21 32 10 22 33 40 41 45 38 42 49 48 44 47 40 37 35 31 29 27 27 24 28 28 19 22 22 25 21 24 20 20 16 15 12
28 30 36 35 29 21 32 7 34 37 38 28 28 20 40 45 41 44 38 52 52 54 51 45 44 38 34 31 28 28 22 28 27 21 17 20 20 17 18 14 19 20 17 15
29 17 30 28 28 30 31 9 28 46 46 18 43 9 31 35 38 45 39 54 50 51 44 58 47 40 39 31 27 28 25 24 26 26 21 24 21 17 18 15 19 18 18 18
29 19 24 31 35 32 4 22 32 65 28 18 34 12 22 41 41 47 54 58 63 52 67 57 45 46 37 34 30 27 29 23 28 24 29 21 16 13 13 17 19 23 24 18
34 22 23 35 36 25 7 20 13 16 10 22 26 14 25 32 49 51 69 72 74 78 53 61 49 53 41 36 33 29 31 26 24 24 20 20 15 13 14 18 13 14 11 18
28 21 31 31 35 16 20 24 9 14 14 6 44 22 18 49 62 65 51 67 59 59 61 56 48 52 48 44 36 34 33 32 27 24 23 18 17 13 12 15 14 16 16 17
27 25 32 23 34 25 34 26 13 18 20 19 20 12 23 42 68 64 64 61 53 50 56 57 55 56 40 50 37 35 35 34 31 27 26 21 17 11 14 13 14 13 17 19
29 36 40 30 27 36 32 31 37 27 37 8 18 18 21 25 43 46 65 69 66 61 54 57 57 52 42 48 45 39 35 34 32 26 28 26 21 19 16 18 16 16 19 19
20 22 38 33 28 33 34 34 32 21 37 31 23 18 25 34 33 35 50 71 77 69 51 58 58 50 50 44 54 40 37 38 34 31 23 19 21 19 19 14 19 20 20 20
26 18 21 23 36 38 26 28 32 31 32 13 16 6 5 41 36 38 50 59 63 40 52 38 51 54 52 55 39 45 39 36 35 34 30 25 21 19 18 16 16 17 24 32
27 16 27 39 30 39 36 36 31 24 39 29 9 10 8 12 28 43 38 52 63 68 68 31 37 38 49 27 44 45 48 37 34 31 31 28 25 22 21 20 18 17 17 26
9 20 24 15 32 35 37 33 41 40 34 34 24 7 12 6 12 29 58 45 53 54 52 55 42 34 53 44 41 41 43 40 30 33 32 31 29 23 24 23 25 18 17 18
17 29 26 7 11 21 35 41 41 38 29 34 27 40 31 29 25 20 29 29 41 50 51 58 48 41 37 39 39 47 39 31 37 38 30 35 32 32 25 26 28 27 26 21
18 34 31 12 35 43 38 42 35 37 39 33 6 22 42 39 36 34 32 29 34 43 41 51 52 54 55 46 39 44 42 40 34 37 36 29 30 29 32 33 32 31 30 27
17 19 22 20 20 33 22 39 31 36 41 30 11 30 6 48 53 44 35 33 32 29 41 43 48 64 51 41 42 40 41 40 35 32 27 24 26 25 23 27 36 37 34 30
17 9 11 20 21 20 12 3 18 16 20 14 16 6 14 37 26 35 35 23 28 35 41 35 44 38 35 34 37 44 41 38 39 50 39 40 30 27 23 27 35 35 35 33
14 6 16 1 22 33 16 33 20 14 14 13 7 13 20 37 38 29 22 29 26 30 36 41 38 39 42 36 32 34 42 37 38 30 30 23 21 25 28 32 31 30 29 29
13 7 10 9 3 16 29 26 20 26 18 10 10 25 22 28 33 24 19 21 26 27 32 35 35 41 44 43 38 35 35 45 41 38 28 23 22 25 25 23 35 31 23 26
12 18 22 7 21 6 14 23 14 19 16 45 23 14 10 7 9 18 27 29 29 26 28 30 28 28 27 32 38 36 35 37 36 31 23 19 19 21 27 24 18 22 26 26
12 15 19 2 9 9 5 6 38 24 10 22 11 6 14 5 22 43 37 32 29 30 33 35 33 31 29 27 27 30 33 37 40 39 37 25 19 22 18 19 21 21 26 28
2 7 12 8 18 8 17 2 5 9 8 16 16 17 31 26 17 29 32 35 37 36 33 33 34 34 32 30 22 25 25 28 32 39 31 26 24 14 18 19 22 18 17 15
9 10 6 16 8 14 18 23 17 13 14 12 10 8 20 13 26 31 35 37 36 36 35 31 30 30 26 22 17 19 17 19 17 18 18 24 24 17 17 20 18 12 17 12
5 5 9 1 15 14 11 16 16 16 18 16 8 3 9 18 31 33 37 33 33 29 24 23 28 22 19 17 11 12 14 13 13 14 16 17 14 15 13 9 10 11 10 14
10 12 11 9 16 10 8 10 8 12 14 15 13 7 7 20 29 30 30 33 32 29 27 25 22 20 18 16 14 12 13 15 12 13 12 10 10 14 21 28 27 28 34 31
18 9 10 3 13 11 18 8 2 2 7 9 9 7 9 15 28 27 30 32 31 29 28 25 22 21 18 14 12 10 10 12 10 7 9 10 10 11 9 17 31 27 19 29
Wind_Direction_500mb
200 210 212 207 217 264 275 252 130 147 158 173 201 189 180 190 218 219 183 177 176 171 160 165 159 160 161 164 172 159 161 159 161 154 149 153 147 153 160 159 168 166 163 167
183 219 224 237 217 258 251 252 107 130 131 112 172 189 181 186 204 218 180 199 174 169 156 168 163 165 164 167 173 181 181 169 166 165 161 162 162 161 157 181 173 167 176 176
215 209 233 225 219 224 244 257 147 161 170 213 189 196 178 191 216 236 229 214 182 159 166 175 173 174 164 172 179 185 193 177 170 179 161 153 151 164 155 172 176 186 178 182
238 228 203 217 234 218 229 220 108 162 159 183 193 158 181 167 200 232 240 208 199 170 184 172 182 176 177 174 180 185 192 192 185 172 165 177 156 165 183 181 185 191 188 186
214 201 215 213 219 214 266 250 130 243 146 88 198 240 142 166 187 217 236 190 220 180 194 187 178 176 178 177 180 182 184 195 181 199 176 157 164 172 167 177 182 199 203 186
246 218 209 223 222 212 58 245 220 276 187 214 160 187 169 174 185 209 214 201 193 198 196 176 185 175 174 179 180 179 184 186 186 187 177 182 186 162 150 184 176 174 189 199
227 223 217 236 211 183 215 220 182 227 214 228 164 210 160 182 189 191 191 200 202 195 187 176 179 183 170 173 182 177 182 185 181 180 186 178 173 173 172 181 161 177 186 198
209 188 211 207 231 187 212 214 209 207 219 178 143 213 134 179 175 192 193 192 199 210 197 184 181 174 175 189 179 180 180 185 183 181 192 194 197 174 183 187 190 178 197 194
195 245 178 191 225 239 200 220 243 269 278 174 253 108 124 152 157 175 183 184 203 206 211 190 178 175 184 183 181 180 183 185 184 191 189 192 201 190 181 192 198 210 176 199
316 217 179 196 205 238 259 210 233 231 265 270 143 219 140 166 182 178 180 187 191 200 217 192 178 179 191 187 178 185 183 185 183 189 197 194 192 207 201 209 195 212 200 210
275 266 180 203 204 210 211 245 230 242 247 261 263 139 231 161 173 178 182 187 186 191 200 235 188 170 182 181 183 181 185 185 184 188 198 189 201 205 214 215 216 218 218 204
236 273 241 197 218 221 223 218 237 238 236 269 286 247 359 65 153 166 169 169 182 177 175 217 189 196 173 179 184 186 195 189 190 192 199 195 193 202 210 217 226 222 218 205
254 231 245 275 190 202 233 212 230 226 252 250 262 111 92 146 178 159 157 165 171 185 193 193 200 192 164 172 185 185 184 181 192 200 203 203 205 206 207 216 220 220 232 219
306 262 253 230 285 243 216 234 219 238 216 248 239 131 168 159 135 124 133 138 162 181 195 191 177 177 150 169 177 187 192 204 196 197 205 208 209 210 213 218 224 218 219 223
250 254 281 121 257 273 192 216 224 230 251 230 349 25 154 157 144 154 157 154 169 172 169 168 171 175 178 183 192 199 208 224 231 222 213 215 208 208 210 213 212 229 226 226
289 318 254 156 240 280 195 198 209 217 243 253 113 241 92 119 125 142 153 168 169 154 169 185 176 179 187 215 204 200 205 227 215 212 206 208 215 208 208 223 222 214 215 225
296 262 262 253 181 215 209 215 256 237 215 311 349 10 8 97 114 116 120 133 159 163 168 161 180 196 197 196 198 204 212 217 239 235 234 230 231 233 241 241 225 218 213 215
266 3 311 332 312 227 108 339 345 16 19 357 320 54 138 101 101 103 126 134 137 142 167 176 179 174 187 197 207 211 207 218 206 206 212 220 234 238 244 231 219 209 206 211
163 138 308 257 274 282 138 93 345 333 59 28 3 86 98 106 105 105 130 145 147 144 166 166 175 185 193 200 207 194 197 201 206 216 225 231 231 233 233 231 221 206 207 211
157 204 253 242 276 238 90 356 337 295 179 356 18 101 103 137 224 134 137 129 124 127 147 158 165 167 170 182 187 195 198 203 205 211 190 193 206 200 204 196 213 210 208 217
220 243 238 332 219 94 291 323 314 256 38 354 39 338 119 163 33 132 137 135 132 131 131 137 135 137 142 156 170 179 183 180 175 171 168 161 166 172 179 183 204 201 202 224
259 302 253 223 267 72 317 189 329 3 20 10 13 45 91 99 121 139 143 139 136 132 127 127 125 122 121 124 133 144 160 172 179 175 163 169 165 142 172 167 158 159 182 189
281 354 13 347 56 105 70 81 66 28 37 20 354 52 107 121 144 150 146 142 141 139 133 129 122 124 124 126 137 138 139 146 156 162 163 155 153 152 165 173 170 162 156 171
166 310 262 324 138 109 96 85 68 44 36 25 24 84 132 135 147 146 141 142 142 136 127 130 122 118 127 132 152 150 152 158 160 175 185 192 181 153 140 133 147 157 185 197
23 145 237 194 149 141 153 96 52 44 36 38 48 89 148 154 162 160 159 156 151 150 146 139 133 129 121 123 128 145 155 143 152 154 161 162 174 156 185 189 177 211 199 187
191 222 207 45 92 178 110 136 113 43 38 37 54 91 125 158 166 169 164 162 161 158 149 140 135 134 128 126 132 147 147 147 144 161 153 167 186 173 186 197 218 233 219 217
Wind_Speed_850mb
35 24 34 40 43 10 17 27 38 30 28 29 26 20 31 32 18 31 49 51 49 45 42 38 36 33 31 28 27 23 30 30 29 23 26 25 26 24 24 21 16 18 12 10
22 32 34 37 25 20 25 7 40 21 32 10 22 33 40 41 45 38 42 49 48 44 47 40 37 35 31 29 27 27 24 28 28 19 22 22 25 21 24 20 20 16 15 12
28 30 36 35 29 21 32 7 34 37 38 28 28 20 40 45 41 44 38 52 52 54 51 45 44 38 34 31 28 28 22 28 27 21 17 20 20 17 18 14 19 20 17 15
29 17 30 28 28 30 31 9 28 46 46 18 43 9 31 35 38 45 39 54 50 51 44 58 47 40 39 31 27 28 25 24 26 26 21 24 21 17 18 15 19 18 18 18
29 19 24 31 35 32 4 22 32 65 28 18 34 12 22 41 41 47 54 58 63 52 67 57 45 46 37 34 30 27 29 23 28 24 29 21 16 13 13 17 19 23 24 18
34 22 23 35 36 25 7 20 13 16 10 22 26 14 25 32 49 51 69 72 74 78 53 61 49 53 41 36 33 29 31 26 24 24 20 20 15 13 14 18 13 14 11 18
28 21 31 31 35 16 20 24 9 14 14 6 44 22 18 49 62 65 51 67 59 59 61 56 48 52 48 44 36 34 33 32 27 24 23 18 17 13 12 15 14 16 16 17
27 25 32 23 34 25 34 26 13 18 20 19 20 12 23 42 68 64 64 61 53 50 56 57 55 56 40 50 37 35 35 34 31 27 26 21 17 11 14 13 14 13 17 19
29 36 40 30 27 36 32 31 37 27 37 8 18 18 21 25 43 46 65 69 66 61 54 57 57 52 42 48 45 39 35 34 32 26 28 26 21 19 16 18 16 16 19 19
20 22 38 33 28 33 34 34 32 21 37 31 23 18 25 34 33 35 50 71 77 69 51 58 58 50 50 44 54 40 37 38 34 31 23 19 21 19 19 14 19 20 20 20
26 18 21 23 36 38 26 28 32 31 32 13 16 6 5 41 36 38 50 59 63 40 52 38 51 54 52 55 39 45 39 36 35 34 30 25 21 19 18 16 16 17 24 32
27 16 27 39 30 39 36 36 31 24 39 29 9 10 8 12 28 43 38 52 63 68 68 31 37 38 49 27 44 45 48 37 34 31 31 28 25 22 21 20 18 17 17 26
9 20 24 15 32 35 37 33 41 40 34 34 24 7 12 6 12 29 58 45 53 54 52 55 42 34 53 44 41 41 43 40 30 33 32 31 29 23 24 23 25 18 17 18
17 29 26 7 11 21 35 41 41 38 29 34 27 40 31 29 25 20 29 29 41 50 51 58 48 41 37 39 39 47 39 31 37 38 30 35 32 32 25 26 28 27 26 21
18 34 31 12 35 43 38 42 35 37 39 33 6 22 42 39 36 34 32 29 34 43 41 51 52 54 55 46 39 44 42 40 34 37 36 29 30 29 32 33 32 31 30 27
17 19 22 20 20 33 22 39 31 36 41 30 11 30 6 48 53 44 35 33 32 29 41 43 48 64 51 41 42 40 41 40 35 32 27 24 26 25 23 27 36 37 34 30
17 9 11 20 21 20 12 3 18 16 20 14 16 6 14 37 26 35 35 23 28 35 41 35 44 38 35 34 37 44 41 38 39 50 39 40 30 27 23 27 35 35 35 33
14 6 16 1 22 33 16 33 20 14 14 13 7 13 20 37 38 29 22 29 26 30 36 41 38 39 42 36 32 34 42 37 38 30 30 23 21 25 28 32 31 30 29 29
13 7 10 9 3 16 29 26 20 26 18 10 10 25 22 28 33 24 19 21 26 27 32 35 35 41 44 43 38 35 35 45 41 38 28 23 22 25 25 23 35 31 23 26
12 18 22 7 21 6 14 23 14 19 16 45 23 14 10 7 9 18 27 29 29 26 28 30 28 28 27 32 38 36 35 37 36 31 23 19 19 21 27 24 18 22 26 26
12 15 19 2 9 9 5 6 38 24 10 22 11 6 14 5 22 43 37 32 29 30 33 35 33 31 29 27 27 30 33 37 40 39 37 25 19 22 18 19 21 21 26 28
2 7 12 8 18 8 17 2 5 9 8 16 16 17 31 26 17 29 32 35 37 36 33 33 34 34 32 30 22 25 25 28 32 39 31 26 24 14 18 19 22 18 17 15
9 10 6 16 8 14 18 23 17 13 14 12 10 8 20 13 26 31 35 37 36 36 35 31 30 30 26 22 17 19 17 19 17 18 18 24 24 17 17 20 18 12 17 12
5 5 9 1 15 14 11 16 16 16 18 16 8 3 9 18 31 33 37 33 33 29 24 23 28 22 19 17 11 12 14 13 13 14 16 17 14 15 13 9 10 11 10 14
10 12 11 9 16 10 8 10 8 12 14 15 13 7 7 20 29 30 30 33 32 29 27 25 22 20 18 16 14 12 13 15 12 13 12 10 10 14 21 28 27 28 34 31
18 9 10 3 13 11 18 8 2 2 7 9 9 7 9 15 28 27 30 32 31 29 28 25 22 21 18 14 12 10 10 12 10 7 9 10 10 11 9 17 31 27 19 29
Wind_Direction_850mb
200 210 212 207 217 264 275 252 130 147 158 173 201 189 180 190 218 219 183 177 176 171 160 165 159 160 161 164 172 159 161 159 161 154 149 153 147 153 160 159 168 166 163 167
183 219 224 237 217 258 251 252 107 130 131 112 172 189 181 186 204 218 180 199 174 169 156 168 163 165 164 167 173 181 181 169 166 165 161 162 162 161 157 181 173 167 176 176
215 209 233 225 219 224 244 257 147 161 170 213 189 196 178 191 216 236 229 214 182 159 166 175 173 174 164 172 179 185 193 177 170 179 161 153 151 164 155 172 176 186 178 182
238 228 203 217 234 218 229 220 108 162 159 183 193 158 181 167 200 232 240 208 199 170 184 172 182 176 177 174 180 185 192 192 185 172 165 177 156 165 183 181 185 191 188 186
214 201 215 213 219 214 266 250 130 243 146 88 198 240 142 166 187 217 236 190 220 180 194 187 178 176 178 177 180 182 184 195 181 199 176 157 164 172 167 177 182 199 203 186
246 218 209 223 222 212 58 245 220 276 187 214 160 187 169 174 185 209 214 201 193 198 196 176 185 175 174 179 180 179 184 186 186 187 177 182 186 162 150 184 176 174 189 199
227 223 217 236 211 183 215 220 182 227 214 228 164 210 160 182 189 191 191 200 202 195 187 176 179 183 170 173 182 177 182 185 181 180 186 178 173 173 172 181 161 177 186 198
209 188 211 207 231 187 212 214 209 207 219 178 143 213 134 179 175 192 193 192 199 210 197 184 181 174 175 189 179 180 180 185 183 181 192 194 197 174 183 187 190 178 197 194
195 245 178 191 225 239 200 220 243 269 278 174 253 108 124 152 157 175 183 184 203 206 211 190 178 175 184 183 181 180 183 185 184 191 189 192 201 190 181 192 198 210 176 199
316 217 179 196 205 238 259 210 233 231 265 270 143 219 140 166 182 178 180 187 191 200 217 192 178 179 191 187 178 185 183 185 183 189 197 194 192 207 201 209 195 212 200 210
275 266 180 203 204 210 211 245 230 242 247 261 263 139 231 161 173 178 182 187 186 191 200 235 188 170 182 181 183 181 185 185 184 188 198 189 201 205 214 215 216 218 218 204
236 273 241 197 218 221 223 218 237 238 236 269 286 247 359 65 153 166 169 169 182 177 175 217 189 196 173 179 184 186 195 189 190 192 199 195 193 202 210 217 226 222 218 205
254 231 245 275 190 202 233 212 230 226 252 250 262 111 92 146 178 159 157 165 171 185 193 193 200 192 164 172 185 185 184 181 192 200 203 203 205 206 207 216 220 220 232 219
306 262 253 230 285 243 216 234 219 238 216 248 239 131 168 159 135 124 133 138 162 181 195 191 177 177 150 169 177 187 192 204 196 197 205 208 209 210 213 218 224 218 219 223
250 254 281 121 257 273 192 216 224 230 251 230 349 25 154 157 144 154 157 154 169 172 169 168 171 175 178 183 192 199 208 224 231 222 213 215 208 208 210 213 212 229 226 226
289 318 254 156 240 280 195 198 209 217 243 253 113 241 92 119 125 142 153 168 169 154 169 185 176 179 187 215 204 200 205 227 215 212 206 208 215 208 208 223 222 214 215 225
296 262 262 253 181 215 209 215 256 237 215 311 349 10 8 97 114 116 120 133 159 163 168 161 180 196 197 196 198 204 212 217 239 235 234 230 231 233 241 241 225 218 213 215
266 3 311 332 312 227 108 339 345 16 19 357 320 54 138 101 101 103 126 134 137 142 167 176 179 174 187 197 207 211 207 218 206 206 212 220 234 238 244 231 219 209 206 211
163 138 308 257 274 282 138 93 345 333 59 28 3 86 98 106 105 105 130 145 147 144 166 166 175 185 193 200 207 194 197 201 206 216 225 231 231 233 233 231 221 206 207 211
157 204 253 242 276 238 90 356 337 295 179 356 18 101 103 137 224 134 137 129 124 127 147 158 165 167 170 182 187 195 198 203 205 211 190 193 206 200 204 196 213 210 208 217
220 243 238 332 219 94 291 323 314 256 38 354 39 338 119 163 33 132 137 135 132 131 131 137 135 137 142 156 170 179 183 180 175 171 168 161 166 172 179 183 204 201 202 224
259 302 253 223 267 72 317 189 329 3 20 10 13 45 91 99 121 139 143 139 136 132 127 127 125 122 121 124 133 144 160 172 179 175 163 169 165 142 172 167 158 159 182 189
281 354 13 347 56 105 70 81 66 28 37 20 354 52 107 121 144 150 146 142 141 139 133 129 122 124 124 126 137 138 139 146 156 162 163 155 153 152 165 173 170 162 156 171
166 310 262 324 138 109 96 85 68 44 36 25 24 84 132 135 147 146 141 142 142 136 127 130 122 118 127 132 152 150 152 158 160 175 185 192 181 153 140 133 147 157 185 197
23 145 237 194 149 141 153 96 52 44 36 38 48 89 148 154 162 160 159 156 151 150 146 139 133 129 121 123 128 145 155 143 152 154 161 162 174 156 185 189 177 211 199 187
191 222 207 45 92 178 110 136 113 43 38 37 54 91 125 158 166 169 164 162 161 158 149 140 135 134 128 126 132 147 147 147 144 161 153 167 186 173 186 197 218 233 219 217